Погода в Степном Матюнино

Россия / Ульяновская область     53°57′49″N   47°49′53″E
темп.,
°C
ветер,
м/с
пор.,
м/с
влажн.,
%
обл.,
%
осадки,
мм/ч
давл.,
гПа
погр.,
м
8 марта, пн
пн801:00−5юз81592100 0.6 9981029
04:00−4юз91693100 0.9 996996
07:00−6зюз7158675 0.1 996618
10:00−5зюз7128672 0.1 999966
13:00−3зюз7117637 0.0 10011362
16:00−3юз599069 0.3 1000786
19:00−4зюз71490100 0.7 1000685
22:00−6з71383100 0.8 1002746
9 марта, вт
вт901:00−9з6129175 0.0 1005398
04:00−14з349554 0.0 100863
07:00−15зюз34954 0.0 101058
10:00−12з34938 0.0 1011171
13:00−8зсз238662 0.0 1010400
16:00−7ссз228581 0.1 1010529
19:00−12ссз3694100 0.1 1010102
22:00−13сз4895100 0.1 1012307
10 марта, ср
ср1001:00−14сз4994100 0.1 1012279
04:00−17сз499689 0.1 1013224
07:00−19сз4109588 0.0 1015264
10:00−19сз699491 0.1 1016404
13:00−17сз6991100 0.0 1017526
16:00−18сз6991100 0.1 1019591
19:00−21сз51094100 0.1 1021443
22:00−23сз4109697 0.1 1023224
11 марта, чт
чт1101:00−25сз479854 0.0 1024121
04:00−26зсз489961 0.0 1025130
07:00−25зсз499987 0.0 1025174
10:00−21зсз6109691 0.0 1026306
13:00−16зсз6109098 0.0 1025367
16:00−14зсз6109199 0.0 1024495
19:00−13сз51292100 0.1 1025520
22:00−14сз51094100 0.1 1027279
12 марта, пт
пт1201:00−16сз489793 0.0 1028124
04:00−17зсз359663 0.0 102969
07:00−18зсз34950 0.0 103155
10:00−13зсз35890 0.0 1032164
13:00−9зсз34830 0.0 1032276
16:00−6з24820 0.0 1031416
19:00−10юз34870 0.0 103130
22:00−13юз34900 0.0 103250